Salt Lake City, UT

10:00 AM MST on December 15, 2017 (GMT -0700)
Salt Lake City International

Weather History for KSLC - January, 2013

Change the Weather History Date:

Monday, January 14, 2013

  Actual Average Record
Temperature  
Mean Temperature 7 °F 29 °F  
Max Temperature 15 °F 37 °F 59 °F (1945)
Min Temperature -2 °F 22 °F -10 °F (1932)
Degree Days  
Heating Degree Days 58 36  
Month to date heating degree days 666 504  
Since 1 July heating degree days 2481 2798  
Cooling Degree Days 0 0  
Month to date cooling degree days 0 0  
Year to date cooling degree days 0 0  
Moisture  
Dew Point 1 °F    
Average Humidity 81    
Maximum Humidity 95    
Minimum Humidity 67    
Precipitation  
Precipitation T in 0.04 in 1.36 in (1953)
Month to date precipitation 0.59 0.59  
Year to date precipitation 0.59 0.59  
Snow  
Snow T in 0.50 in 8.50 in (1953)
Month to date snowfall 10.4 6.1  
Since 1 July snowfall 39.0 28.3  
Snow Depth 7.00 in    
Sea Level Pressure  
Sea Level Pressure 30.49 in    
Wind  
Wind Speed 5 mph (ESE)    
Max Wind Speed 13 mph    
Max Gust Speed 14 mph    
Visibility 9 miles    
Events Snow    
T = Trace of Precipitation, MM = Missing Value Source: NWS Daily Summary

Daily Weather History Graph

Daily Weather History Graph

Search for Another Location

Airport or City:

Trip Planner

Search our weather history database for the weather conditions in past years. The results will help you decide how hot, cold, wet, or windy it might be!

Date:

Astronomy

Jan. 14, 2013 Rise Set
Actual Time 7:50 AM MST 5:24 PM MST
Civil Twilight 7:20 AM MST 5:54 PM MST
Nautical Twilight 6:46 AM MST 6:28 PM MST
Astronomical Twilight 6:13 AM MST 7:01 PM MST
Moon 9:24 AM MST (1/14) 9:15 PM MST (1/14)
Length of Visible Light 10h 34m
Length of Day
9h 34m
Waxing Crescent, 12% of the Moon is Illuminated
Jan 14
Waxing Crescent
Jan 18
First Quarter
Jan 26
Full
Feb 3
Last Quarter
Feb 10
New

Hourly Weather History & Observations

Time (MST) Temp. Windchill Dew Point Humidity Pressure Visibility Wind Dir Wind Speed Gust Speed Precip Events Conditions
12:53 AM 1.9 °F - -0.9 °F 88% 30.41 in 8.0 mi Calm Calm - N/A   Partly Cloudy
1:53 AM -2.0 °F -10.1 °F -6.0 °F 83% 30.43 in 8.0 mi NNW 3.5 mph - N/A   Scattered Clouds
2:53 AM -0.0 °F -7.9 °F -4.0 °F 83% 30.45 in 8.0 mi SE 3.5 mph - N/A   Partly Cloudy
3:53 AM 1.0 °F -11.7 °F -4.0 °F 79% 30.45 in 9.0 mi SSE 6.9 mph - N/A   Partly Cloudy
4:53 AM 1.9 °F -9.2 °F -2.9 °F 80% 30.45 in 10.0 mi SSE 5.8 mph - N/A   Scattered Clouds
5:53 AM 1.9 °F -9.2 °F -2.9 °F 80% 30.48 in 10.0 mi SE 5.8 mph - N/A   Mostly Cloudy
6:53 AM -0.0 °F -7.9 °F -5.1 °F 79% 30.51 in 10.0 mi NNW 3.5 mph - N/A   Overcast
7:53 AM 1.9 °F - -2.9 °F 80% 30.52 in 10.0 mi Calm Calm - N/A   Mostly Cloudy
8:53 AM 1.9 °F -5.6 °F -2.0 °F 83% 30.54 in 6.0 mi NE 3.5 mph - 0.00 in Snow Light Snow
9:14 AM 3.9 °F - 3.0 °F 96% 30.31 in 7.0 mi Calm Calm - 0.00 in   Light Freezing Drizzle
9:35 AM 7.0 °F -4.5 °F 3.0 °F 84% 30.32 in 8.0 mi SSE 6.9 mph - 0.00 in   Mostly Cloudy
9:53 AM 8.1 °F -4.3 °F 3.0 °F 80% 30.53 in 10.0 mi SE 8.1 mph - 0.00 in   Mostly Cloudy
10:53 AM 8.6 °F -2.6 °F 3.2 °F 79% 30.32 in 10.0 mi SSE 6.9 mph - N/A   Scattered Clouds
11:53 AM 12.2 °F - 5.0 °F 73% 30.31 in 10.0 mi Calm Calm - N/A   Scattered Clouds
12:53 PM 12.9 °F -0.2 °F 5.0 °F 71% 30.51 in 8.0 mi North 10.4 mph - N/A   Scattered Clouds
1:53 PM 12.0 °F 2.7 °F 5.0 °F 73% 30.53 in 9.0 mi North 5.8 mph - 0.00 in Snow Light Snow
2:53 PM 14.0 °F 6.5 °F 5.0 °F 67% 30.33 in 10.0 mi North 4.6 mph - N/A   Scattered Clouds
3:53 PM 12.9 °F 3.8 °F 3.0 °F 65% 30.55 in 9.0 mi North 5.8 mph - N/A   Mostly Cloudy
4:53 PM 12.0 °F 4.1 °F 3.0 °F 67% 30.56 in 10.0 mi NNW 4.6 mph - N/A   Mostly Cloudy
5:53 PM 10.9 °F 1.4 °F 3.9 °F 73% 30.56 in 10.0 mi WSW 5.8 mph - N/A   Mostly Cloudy
6:53 PM 10.9 °F - 3.9 °F 73% 30.59 in 10.0 mi Calm Calm - N/A   Mostly Cloudy
7:53 PM 12.0 °F - 5.0 °F 73% 30.57 in 9.0 mi Calm Calm - N/A   Overcast
8:53 PM 12.0 °F 1.5 °F 5.0 °F 73% 30.58 in 7.0 mi SE 6.9 mph - 0.00 in Snow Light Snow
9:53 PM 12.0 °F 1.5 °F 3.9 °F 70% 30.57 in 9.0 mi South 6.9 mph - 0.00 in   Overcast
10:53 PM 12.0 °F -0.4 °F 3.9 °F 70% 30.57 in 9.0 mi SSE 9.2 mph - N/A   Overcast
11:54 PM 12.0 °F 0.5 °F 3.9 °F 70% 30.57 in 10.0 mi SSE 8.1 mph - N/A   Overcast